Tracking 32938 objects as of 13-Jan-2026
HD Live streaming from Space Station
objects crossing your sky now

THORAD AGENA D DEB

Track THORAD AGENA D DEB now!
10-day predictions


NORAD ID: 4859
Int'l Code: 1970-025EP
Perigee: 1,006.3 km
Apogee: 1,072.1 km
Inclination: 99.9 °
Period: 105.8 minutes
Semi major axis: 7410 km
RCS: 0.0107 m2 (small)
Launch date: April 8, 1970
Source: United States (US)
Launch site: AIR FORCE WESTERN TEST RANGE (AFWTR)

Note: This is SATELLITE DEBRIS
Your satellite tracking list
Your tracking list is empty




NASA's NSSDC Master Catalog

Two Line Element Set (TLE):
1 04859U 70025EP  26013.19551297  .00000519  00000-0  74099-3 0  9998
2 04859  99.9475 109.4412 0044385 324.9795  64.3891 13.61005797746631
Source of the keplerian elements: AFSPC